WXM80 ListenWXM80 Stop

You find our weather info also at:

UK Metoffice

WeatherCloud

Weather Underground

Northeastern Weather Network

AWEKAS

Citizen Weather Observer Program (CWOP)

HAMweather, WeatherForYou, PWS Weather


Weather Underground History page Text

Daily Summary for January 03, 2018 Units:  Metric    English   Both
« Previous Day
Next Day »
Daily Weekly Monthly Yearly Custom
  High: Low: Average:
Temperature: -1.2 °C -8.6 °C -5.3 °C
Dew Point: -4.6 °C -14.2 °C -11.3 °C
Humidity: 87 % 48 % 64 %
Wind Speed: 12.6 km/h 0 km/h 2.6 km/h
Wind Gust: 24.1 km/h - -
Wind:- - SSW
Pressure: 1028 hPa 1008.4 hPa -
Precipitation: 0 mm    
Historical Graphs
 
 
Tabular Data for January 03, 2018
Time Temperature Dew Point Pressure Wind Wind Speed Wind Gust Humidity Rainfall Rate (Hourly)
00:02 -7 °C -13.1 °C 1026.6 hPa WSW 5 km/h 9.7 km/h 62 % 0 mm
00:06 -7 °C -13.1 °C 1026.6 hPa WSW 3.7 km/h 5.6 km/h 62 % 0 mm
00:11 -7 °C -13.1 °C 1026.6 hPa SW 5.5 km/h 11.1 km/h 62 % 0 mm
00:16 -7 °C -13.1 °C 1026.6 hPa WSW 6.8 km/h 11.1 km/h 62 % 0 mm
00:21 -7.1 °C -13.1 °C 1026.6 hPa WSW 8 km/h 14.8 km/h 62 % 0 mm
00:22 -7.1 °C -13.1 °C 1026.6 hPa WNW 6.6 km/h 14.8 km/h 62 % 0 mm
00:27 -7.1 °C -13.1 °C 1026.6 hPa West 7.4 km/h 14.8 km/h 62 % 0 mm
00:28 -7.1 °C -13.1 °C 1026.6 hPa WSW 5.5 km/h 14.8 km/h 62 % 0 mm
00:31 -7 °C -13.1 °C 1026.6 hPa WSW 5.5 km/h 11.3 km/h 62 % 0 mm
00:36 -7 °C -13.1 °C 1026.6 hPa WSW 3.7 km/h 9.3 km/h 62 % 0 mm
00:38 -7 °C -13.1 °C 1026.6 hPa SW 2.9 km/h 7.4 km/h 62 % 0 mm
00:43 -6.9 °C -12.8 °C 1026.6 hPa WSW 7.2 km/h 14.8 km/h 63 % 0 mm
00:47 -6.9 °C -12.8 °C 1026.3 hPa West 12.4 km/h 18.5 km/h 63 % 0 mm
00:53 -6.8 °C -12.7 °C 1026.3 hPa SW 12.6 km/h 24.1 km/h 63 % 0 mm
00:56 -6.8 °C -12.8 °C 1026.6 hPa SW 10.6 km/h 20.4 km/h 62 % 0 mm
00:57 -6.7 °C -12.8 °C 1026.6 hPa WSW 4.5 km/h 14.8 km/h 62 % 0 mm
01:02 -6.7 °C -12.6 °C 1026.6 hPa WSW 11.3 km/h 16.7 km/h 63 % 0 mm
01:07 -6.7 °C -12.6 °C 1026.6 hPa NW 6.1 km/h 11.3 km/h 63 % 0 mm
01:12 -6.7 °C -12.6 °C 1026.6 hPa WSW 2.7 km/h 8 km/h 63 % 0 mm
01:16 -6.7 °C -12.6 °C 1026.6 hPa WSW 3.7 km/h 5.6 km/h 63 % 0 mm
01:21 -6.7 °C -12.6 °C 1026.6 hPa SW 4.7 km/h 14.5 km/h 63 % 0 mm
01:24 -6.8 °C -12.7 °C 1027 hPa SW 7.4 km/h 9.7 km/h 63 % 0 mm
01:30 -6.8 °C -12.9 °C 1026.6 hPa West 9 km/h 9.3 km/h 62 % 0 mm
01:35 -6.8 °C -12.9 °C 1026.6 hPa WSW 4.2 km/h 11.1 km/h 62 % 0 mm
01:37 -6.9 °C -12.9 °C 1026.6 hPa SW 4.3 km/h 9.3 km/h 62 % 0 mm
01:39 -6.9 °C -12.9 °C 1026.6 hPa WSW 4.5 km/h 9.3 km/h 62 % 0 mm
01:44 -6.9 °C -13 °C 1027 hPa SW 3.2 km/h 5.6 km/h 62 % 0 mm
01:45 -6.9 °C -13 °C 1026.6 hPa SSW 3.4 km/h 8 km/h 62 % 0 mm
01:50 -7.1 °C -13.1 °C 1026.6 hPa SSW 4.3 km/h 7.4 km/h 62 % 0 mm
01:55 -7.1 °C -13.2 °C 1026.6 hPa WSW 6.4 km/h 11.1 km/h 62 % 0 mm
01:58 -7.2 °C -13.2 °C 1026.6 hPa West 1.4 km/h 7.4 km/h 62 % 0 mm
02:03 -7.3 °C -13.3 °C 1027 hPa South 6 km/h 13 km/h 62 % 0 mm
02:10 -7.4 °C -13.4 °C 1027 hPa SW 5.5 km/h 9.3 km/h 62 % 0 mm
02:15 -7.4 °C -13.5 °C 1027 hPa WSW 6.6 km/h 11.1 km/h 62 % 0 mm
02:16 -7.5 °C -13.6 °C 1027 hPa SW 4.2 km/h 7.4 km/h 62 % 0 mm
02:21 -7.6 °C -13.6 °C 1027 hPa SW 4.2 km/h 7.4 km/h 62 % 0 mm
02:26 -7.6 °C -13.7 °C 1027 hPa SW 4.7 km/h 8 km/h 62 % 0 mm
02:27 -7.6 °C -13.7 °C 1027 hPa SSW 4.3 km/h 7.4 km/h 62 % 0 mm
02:32 -7.7 °C -13.7 °C 1027 hPa WSW 6.4 km/h 9.7 km/h 62 % 0 mm
02:35 -7.7 °C -13.7 °C 1027 hPa WSW 6.4 km/h 13 km/h 62 % 0 mm
02:36 -7.7 °C -13.7 °C 1027 hPa SW 4 km/h 9.3 km/h 62 % 0 mm
02:41 -7.8 °C -13.8 °C 1027.3 hPa SW 4.5 km/h 11.1 km/h 62 % 0 mm
02:42 -7.8 °C -13.8 °C 1027.3 hPa SSW 2.4 km/h 7.4 km/h 62 % 0 mm
02:47 -7.8 °C -13.8 °C 1027 hPa SW 4 km/h 13 km/h 62 % 0 mm
02:51 -7.9 °C -13.9 °C 1027.3 hPa SSW 1.1 km/h 7.4 km/h 62 % 0 mm
02:52 -7.9 °C -13.9 °C 1027.3 hPa WSW 1.4 km/h 7.4 km/h 62 % 0 mm
02:57 -7.9 °C -13.9 °C 1027.3 hPa SW 5.6 km/h 11.1 km/h 62 % 0 mm
02:58 -8 °C -14 °C 1027.3 hPa SW 1.8 km/h 5.6 km/h 62 % 0 mm
03:03 -8 °C -14 °C 1027.3 hPa SSW 5.1 km/h 9.3 km/h 62 % 0 mm
03:07 -8.1 °C -14.1 °C 1027.3 hPa WSW 2.7 km/h 5.6 km/h 62 % 0 mm
03:13 -8.1 °C -13.9 °C 1027.3 hPa SW 0.8 km/h 3.7 km/h 63 % 0 mm
03:16 -8.1 °C -13.9 °C 1027.3 hPa WSW 3.1 km/h 11.3 km/h 63 % 0 mm
03:26 -8.2 °C -14 °C 1027.3 hPa SSW 2.7 km/h 7.4 km/h 63 % 0 mm
03:28 -8.2 °C -14 °C 1027.3 hPa SW 3.7 km/h 7.4 km/h 63 % 0 mm
03:33 -8.2 °C -14 °C 1027 hPa WSW 5 km/h 9.3 km/h 63 % 0 mm
03:38 -8.2 °C -14 °C 1027 hPa West 1.4 km/h 11.3 km/h 63 % 0 mm
03:43 -8.2 °C -14 °C 1027 hPa WSW 3.4 km/h 6.4 km/h 63 % 0 mm
03:45 -8.2 °C -14 °C 1027 hPa SW 1.9 km/h 5.6 km/h 63 % 0 mm
03:50 -8.2 °C -13.8 °C 1027.3 hPa SW 6 km/h 9.7 km/h 64 % 0 mm
03:55 -8.2 °C -13.8 °C 1027.3 hPa SSW 1.6 km/h 9.3 km/h 64 % 0 mm
03:58 -8.2 °C -13.8 °C 1027 hPa WSW 4 km/h 7.4 km/h 64 % 0 mm
04:04 -8.2 °C -14 °C 1026.6 hPa WSW 4.2 km/h 8 km/h 63 % 0 mm
04:09 -8.2 °C -13.8 °C 1026.6 hPa West 4.2 km/h 7.4 km/h 64 % 0 mm
04:14 -8.2 °C -13.8 °C 1026.6 hPa WSW 5.5 km/h 9.3 km/h 64 % 0 mm
04:17 -8.2 °C -13.8 °C 1027 hPa WSW 5.1 km/h 11.3 km/h 64 % 0 mm
04:18 -8.2 °C -13.8 °C 1026.6 hPa WSW 1.6 km/h 11.1 km/h 64 % 0 mm
04:23 -8.2 °C -13.7 °C 1026.6 hPa SW 2.6 km/h 6.4 km/h 65 % 0 mm
04:24 -8.2 °C -13.7 °C 1027 hPa WSW 4.7 km/h 9.3 km/h 65 % 0 mm
04:29 -8.2 °C -13.7 °C 1026.6 hPa West 2.9 km/h 5.6 km/h 65 % 0 mm
04:34 -8.3 °C -13.7 °C 1027 hPa WSW 2.1 km/h 5.6 km/h 65 % 0 mm
04:39 -8.3 °C -13.7 °C 1026.6 hPa West 2.3 km/h 7.4 km/h 65 % 0 mm
04:42 -8.3 °C -13.7 °C 1026.6 hPa WSW 4.7 km/h 7.4 km/h 65 % 0 mm
04:47 -8.3 °C -13.7 °C 1027 hPa WSW 4.7 km/h 9.3 km/h 65 % 0 mm
04:50 -8.3 °C -13.7 °C 1026.6 hPa SW 1.3 km/h 3.7 km/h 65 % 0 mm
04:55 -8.3 °C -13.7 °C 1026.6 hPa West 1.9 km/h 3.7 km/h 65 % 0 mm
04:59 -8.3 °C -13.7 °C 1026.6 hPa SSW 4.7 km/h 6.4 km/h 65 % 0 mm
05:00 -8.3 °C -13.7 °C 1026.6 hPa SW 3.9 km/h 7.4 km/h 65 % 0 mm
05:05 -8.4 °C -13.6 °C 1026.6 hPa WSW 2.6 km/h 3.7 km/h 66 % 0 mm
05:10 -8.3 °C -13.4 °C 1026.3 hPa NNW 10.9 km/h 16.7 km/h 67 % 0 mm
05:11 -8.3 °C -13.4 °C 1026.6 hPa West 6.8 km/h 14.8 km/h 67 % 0 mm
05:17 -8.2 °C -13.3 °C 1026.6 hPa WSW 7.7 km/h 9.7 km/h 67 % 0 mm
05:21 -8.1 °C -13.2 °C 1026.3 hPa WNW 5 km/h 13 km/h 67 % 0 mm
05:26 -7.9 °C -13.2 °C 1026 hPa WNW 3.2 km/h 9.3 km/h 66 % 0 mm
05:27 -7.9 °C -13.2 °C 1026.3 hPa WNW 6.3 km/h 11.1 km/h 66 % 0 mm
05:32 -7.8 °C -13.1 °C 1026.6 hPa WSW 1.6 km/h 5.6 km/h 66 % 0 mm
05:35 -7.8 °C -13.3 °C 1027 hPa WNW 8 km/h 16.7 km/h 65 % 0 mm
05:40 -7.7 °C -13.2 °C 1026.3 hPa WNW 8.7 km/h 19.3 km/h 65 % 0 mm
05:43 -7.7 °C -13.1 °C 1026.3 hPa West 6.8 km/h 16.7 km/h 65 % 0 mm
05:46 -7.7 °C -13.1 °C 1026.6 hPa WSW 8.4 km/h 11.3 km/h 65 % 0 mm
05:49 -7.6 °C -13.1 °C 1026.6 hPa Calm   3.7 km/h 65 % 0 mm
05:54 -7.6 °C -13.3 °C 1027 hPa WSW 4.3 km/h 8 km/h 64 % 0 mm
05:57 -7.6 °C -13.3 °C 1027 hPa Calm   3.7 km/h 64 % 0 mm
06:02 -7.7 °C -13.3 °C 1027 hPa WSW 3.9 km/h 9.3 km/h 64 % 0 mm
06:03 -7.7 °C -13.3 °C 1027 hPa WSW 2.7 km/h 5.6 km/h 64 % 0 mm
06:08 -7.7 °C -13.3 °C 1026.6 hPa West 3.2 km/h 3.7 km/h 64 % 0 mm
06:11 -7.7 °C -13.3 °C 1027 hPa West 7.2 km/h 8 km/h 64 % 0 mm
06:13 -7.7 °C -13.6 °C 1027 hPa West 5.5 km/h 11.1 km/h 63 % 0 mm
06:17 -7.7 °C -13.6 °C 1027 hPa West 2.6 km/h 7.4 km/h 63 % 0 mm
06:22 -7.7 °C -13.6 °C 1026.6 hPa WNW 5.1 km/h 7.4 km/h 63 % 0 mm
06:24 -7.7 °C -13.3 °C 1026.6 hPa West 4.8 km/h 9.3 km/h 64 % 0 mm
06:29 -7.8 °C -13.4 °C 1026.6 hPa West 1.6 km/h 5.6 km/h 64 % 0 mm
06:31 -7.8 °C -13.4 °C 1026.6 hPa WSW 6.8 km/h 9.7 km/h 64 % 0 mm
06:35 -7.8 °C -13.4 °C 1026.6 hPa WSW 5 km/h 7.4 km/h 64 % 0 mm
06:40 -7.8 °C -13.4 °C 1027 hPa WSW 6.1 km/h 9.7 km/h 64 % 0 mm
06:44 -7.8 °C -13.4 °C 1027 hPa WNW 4.2 km/h 6.4 km/h 64 % 0 mm
06:50 -7.8 °C -13.3 °C 1026.6 hPa WNW 5 km/h 9.3 km/h 65 % 0 mm
06:54 -7.8 °C -13.3 °C 1027 hPa WNW 6.6 km/h 8 km/h 65 % 0 mm
06:59 -7.9 °C -13.3 °C 1027 hPa West 1.9 km/h 3.7 km/h 65 % 0 mm
07:01 -7.9 °C -13.3 °C 1027 hPa West 1.9 km/h 5.6 km/h 65 % 0 mm
07:06 -7.9 °C -13.6 °C 1027 hPa WSW 4.7 km/h 9.3 km/h 64 % 0 mm
07:09 -7.9 °C -13.6 °C 1027 hPa West 4.3 km/h 5.6 km/h 64 % 0 mm
07:11 -7.9 °C -13.6 °C 1027 hPa West 1.9 km/h 5.6 km/h 64 % 0 mm
07:14 -7.9 °C -13.6 °C 1027 hPa WSW 1.6 km/h 3.7 km/h 64 % 0 mm
07:19 -8 °C -13.6 °C 1027 hPa SSW 3.1 km/h 5.6 km/h 64 % 0 mm
07:21 -8 °C -13.4 °C 1027 hPa SW 2.9 km/h 5.6 km/h 65 % 0 mm
07:24 -8.1 °C -13.5 °C 1027 hPa SW 1.3 km/h 4.8 km/h 65 % 0 mm
07:28 -8.1 °C -13.5 °C 1027.3 hPa Calm   5.6 km/h 65 % 0 mm
07:33 -8.2 °C -13.6 °C 1027.3 hPa Calm     65 % 0 mm
07:34 -8.2 °C -13.6 °C 1027.3 hPa SW 0.2 km/h 1.9 km/h 65 % 0 mm
07:39 -8.2 °C -13.7 °C 1027.3 hPa Calm   1.9 km/h 65 % 0 mm
07:42 -8.3 °C -13.7 °C 1027.3 hPa Calm     65 % 0 mm
07:47 -8.3 °C -13.7 °C 1027.3 hPa SW 3.1 km/h 5.6 km/h 65 % 0 mm
07:52 -8.4 °C -13.8 °C 1027.3 hPa SW 0.8 km/h 3.2 km/h 65 % 0 mm
07:53 -8.4 °C -13.8 °C 1027.3 hPa SW 1.9 km/h 3.2 km/h 65 % 0 mm
07:55 -8.4 °C -13.8 °C 1027.3 hPa SW 1.1 km/h 3.7 km/h 65 % 0 mm
08:00 -8.5 °C -13.9 °C 1027.3 hPa SW 1.6 km/h 4.8 km/h 65 % 0 mm
08:01 -8.5 °C -13.9 °C 1027.3 hPa SW 2.7 km/h 5.6 km/h 65 % 0 mm
08:07 -8.6 °C -13.9 °C 1027.7 hPa Calm     65 % 0 mm
08:08 -8.6 °C -13.9 °C 1027.7 hPa SW 2.4 km/h 4.8 km/h 65 % 0 mm
08:13 -8.6 °C -14 °C 1027.7 hPa SW 1.9 km/h 4.8 km/h 65 % 0 mm
08:16 -8.6 °C -14 °C 1027.7 hPa SW 3.2 km/h 6.4 km/h 65 % 0 mm
08:21 -8.6 °C -14 °C 1027.7 hPa SW 1 km/h 5.6 km/h 65 % 0 mm
08:24 -8.6 °C -13.9 °C 1027.7 hPa SSW 3.9 km/h 5.6 km/h 65 % 0 mm
08:29 -8.6 °C -13.9 °C 1027.7 hPa SSW 2.7 km/h 8 km/h 65 % 0 mm
08:34 -8.5 °C -14.1 °C 1027.7 hPa West 4.8 km/h 5.6 km/h 64 % 0 mm
08:37 -8.5 °C -14.1 °C 1027.7 hPa WSW 2.9 km/h 4.8 km/h 64 % 0 mm
08:42 -8.4 °C -14.2 °C 1027.7 hPa WSW 1 km/h 4.8 km/h 63 % 0 mm
08:43 -8.4 °C -14.2 °C 1027.3 hPa SW 5 km/h 5 km/h 63 % 0 mm
08:48 -8.3 °C -14.1 °C 1027.3 hPa West 1.8 km/h 5.6 km/h 63 % 0 mm
08:49 -8.3 °C -14.1 °C 1027.3 hPa SW 4.8 km/h 5.6 km/h 63 % 0 mm
08:54 -8.2 °C -14 °C 1027.7 hPa West 8.7 km/h 13 km/h 63 % 0 mm
08:56 -8.1 °C -13.9 °C 1027.7 hPa SSW 4.8 km/h 9.7 km/h 63 % 0 mm
08:58 -8 °C -13.8 °C 1027.7 hPa South 3.7 km/h 8 km/h 63 % 0 mm
09:04 -7.8 °C -13.8 °C 1027.7 hPa WNW 0.5 km/h 5.6 km/h 62 % 0 mm
09:05 -7.8 °C -13.8 °C 1027.7 hPa West 5.5 km/h 8 km/h 62 % 0 mm
09:11 -7.7 °C -13.9 °C 1027.7 hPa WSW 3.2 km/h 12.9 km/h 61 % 0 mm
09:16 -7.5 °C -13.8 °C 1027.3 hPa WSW 1.6 km/h 11.3 km/h 61 % 0 mm
09:20 -7.4 °C -13.6 °C 1027.7 hPa SW 8 km/h 9.7 km/h 61 % 0 mm
09:25 -7.2 °C -13.5 °C 1027.7 hPa WSW 3.1 km/h 7.4 km/h 61 % 0 mm
09:29 -7.1 °C -13.4 °C 1027.7 hPa SW 3.9 km/h 5.6 km/h 61 % 0 mm
09:34 -6.9 °C -13.2 °C 1027.7 hPa West 1.3 km/h 5.6 km/h 61 % 0 mm
09:36 -6.8 °C -13.1 °C 1028 hPa SSW 2.4 km/h 6.4 km/h 61 % 0 mm
09:39 -6.8 °C -13.1 °C 1027.7 hPa SW 3.4 km/h 7.4 km/h 61 % 0 mm
09:44 -6.5 °C -13 °C 1027.7 hPa West 0.2 km/h 3.7 km/h 60 % 0 mm
09:49 -6.2 °C -12.9 °C 1027.7 hPa West 0.3 km/h 3.7 km/h 59 % 0 mm
09:51 -6.1 °C -12.8 °C 1027.3 hPa West 2.1 km/h 9.7 km/h 59 % 0 mm
09:54 -5.9 °C -12.9 °C 1027.3 hPa SW 4.3 km/h 5.6 km/h 58 % 0 mm
09:59 -5.6 °C -12.8 °C 1027.7 hPa WSW 4.7 km/h 9.7 km/h 57 % 0 mm
10:04 -5.4 °C -12.8 °C 1027.3 hPa WSW 0.2 km/h 3.7 km/h 56 % 0 mm
10:05 -5.4 °C -12.8 °C 1027.3 hPa Calm   3.7 km/h 56 % 0 mm
10:10 -5.2 °C -12.6 °C 1027.3 hPa West 3.4 km/h 5.6 km/h 56 % 0 mm
10:14 -5 °C -12.7 °C 1027.3 hPa SW 6 km/h 9.7 km/h 55 % 0 mm
10:19 -4.8 °C -12.7 °C 1027.3 hPa South 1.9 km/h 5.6 km/h 54 % 0 mm
10:21 -4.8 °C -12.7 °C 1027.3 hPa West 6.1 km/h 7.4 km/h 54 % 0 mm
10:26 -4.6 °C -12.8 °C 1027.3 hPa SW 4.5 km/h 9.3 km/h 53 % 0 mm
10:31 -4.5 °C -12.9 °C 1027.3 hPa SW 6.1 km/h 9.3 km/h 52 % 0 mm
10:35 -4.4 °C -12.6 °C 1027.3 hPa SSW 6.1 km/h 9.3 km/h 53 % 0 mm
10:40 -4.3 °C -12.7 °C 1027.3 hPa WSW 4.8 km/h 6.4 km/h 52 % 0 mm
10:41 -4.3 °C -12.9 °C 1027 hPa SW 5.1 km/h 7.4 km/h 51 % 0 mm
10:42 -4.3 °C -12.9 °C 1027 hPa WSW 2.7 km/h 5.6 km/h 51 % 0 mm
10:47 -4.2 °C -12.8 °C 1027 hPa West 2.9 km/h 11.1 km/h 51 % 0 mm
10:48 -4.2 °C -12.8 °C 1027 hPa West 2.6 km/h 6.4 km/h 51 % 0 mm
10:53 -4.1 °C -12.9 °C 1027 hPa WNW 3.9 km/h 8 km/h 50 % 0 mm
10:58 -4.1 °C -12.9 °C 1027 hPa WNW 5.6 km/h 8 km/h 50 % 0 mm
11:02 -4.1 °C -12.9 °C 1026.6 hPa WNW 0.5 km/h 3.7 km/h 50 % 0 mm
11:05 -4 °C -12.9 °C 1026.6 hPa WSW 3.1 km/h 8 km/h 50 % 0 mm
11:10 -4.1 °C -12.9 °C 1026.6 hPa West 3.2 km/h 5.6 km/h 50 % 0 mm
11:11 -4.1 °C -13.2 °C 1026.6 hPa WNW 2.9 km/h 5.6 km/h 49 % 0 mm
11:16 -4 °C -12.9 °C 1026.3 hPa SW 3.9 km/h 7.4 km/h 50 % 0 mm
11:21 -4 °C -12.7 °C 1026.6 hPa WNW 1.9 km/h 5.6 km/h 51 % 0 mm
11:22 -4 °C -12.7 °C 1026.6 hPa WNW 3.1 km/h 6.4 km/h 51 % 0 mm
11:25 -4 °C -12.9 °C 1026.3 hPa WNW 1.3 km/h 5.6 km/h 50 % 0 mm
11:30 -3.9 °C -12.6 °C 1026.3 hPa NW 5.1 km/h 7.4 km/h 51 % 0 mm
11:31 -3.9 °C -12.8 °C 1026.3 hPa WNW 4.8 km/h 8 km/h 50 % 0 mm
11:39 -3.9 °C -12.8 °C 1026 hPa WNW 3.1 km/h 3.2 km/h 50 % 0 mm
11:42 -3.9 °C -12.8 °C 1026 hPa WNW 1 km/h 3.7 km/h 50 % 0 mm
11:44 -3.9 °C -12.8 °C 1026 hPa WNW 1.1 km/h 1.9 km/h 50 % 0 mm
11:46 -3.9 °C -12.8 °C 1026 hPa WNW 1.6 km/h 8 km/h 50 % 0 mm
11:51 -3.9 °C -12.8 °C 1026 hPa WNW 4.8 km/h 8 km/h 50 % 0 mm
11:56 -3.9 °C -12.6 °C 1026 hPa WNW 3.2 km/h 8 km/h 51 % 0 mm
11:58 -3.9 °C -12.8 °C 1026 hPa WNW 5.5 km/h 7.4 km/h 50 % 0 mm
12:03 -3.8 °C -13 °C 1026 hPa WNW 5.1 km/h 6.4 km/h 49 % 0 mm
12:05 -3.8 °C -13 °C 1026 hPa WNW 5 km/h 7.4 km/h 49 % 0 mm
12:10 -3.8 °C -12.9 °C 1026 hPa WNW 1.1 km/h 5.6 km/h 49 % 0 mm
12:11 -3.8 °C -12.9 °C 1026 hPa WNW 1.6 km/h 8 km/h 49 % 0 mm
12:16 -3.7 °C -12.6 °C 1026 hPa NW 1.6 km/h 8 km/h 50 % 0 mm
12:21 -3.5 °C -12.4 °C 1025.6 hPa WSW 3.9 km/h 5.6 km/h 50 % 0 mm
12:23 -3.4 °C -12.7 °C 1025.6 hPa West 0.8 km/h 3.7 km/h 49 % 0 mm
12:28 -3.3 °C -12.2 °C 1025.6 hPa NNW 1 km/h 5.6 km/h 50 % 0 mm
12:29 -3.2 °C -12.2 °C 1025.3 hPa WNW 3.9 km/h 5.6 km/h 50 % 0 mm
12:33 -3.2 °C -12.4 °C 1025.3 hPa WNW 1.1 km/h 5.6 km/h 49 % 0 mm
12:38 -2.9 °C -12.2 °C 1024.9 hPa NNW 4 km/h 5.6 km/h 49 % 0 mm
12:43 -2.8 °C -12.3 °C 1024.9 hPa NW 2.4 km/h 5.6 km/h 48 % 0 mm
12:45 -2.8 °C -12.3 °C 1024.9 hPa NW 2.3 km/h 5.6 km/h 48 % 0 mm
12:50 -2.7 °C -12.2 °C 1024.9 hPa WNW 4.7 km/h 9.3 km/h 48 % 0 mm
12:52 -2.6 °C -12.1 °C 1024.6 hPa WNW 4 km/h 9.3 km/h 48 % 0 mm
12:54 -2.6 °C -11.6 °C 1024.6 hPa WNW 3.1 km/h 6.4 km/h 50 % 0 mm
13:00 -2.4 °C -10.9 °C 1024.6 hPa NNW 2.4 km/h 5.6 km/h 52 % 0 mm
13:01 -2.3 °C -10.9 °C 1024.6 hPa NW 4.7 km/h 7.4 km/h 52 % 0 mm
13:07 -2.3 °C -10.6 °C 1024.6 hPa NNW 3.2 km/h 5.6 km/h 53 % 0 mm
13:12 -2.2 °C -10.7 °C 1024.6 hPa NNW 1.3 km/h 5.6 km/h 52 % 0 mm
13:17 -2.2 °C -10.9 °C 1024.6 hPa WNW 3.4 km/h 5.6 km/h 51 % 0 mm
13:19 -2.1 °C -10.9 °C 1024.6 hPa WNW 3.7 km/h 7.4 km/h 51 % 0 mm
13:24 -2.1 °C -10.8 °C 1024.6 hPa WNW 1.4 km/h 7.4 km/h 51 % 0 mm
13:28 -1.9 °C -10.4 °C 1024.3 hPa WNW 1.1 km/h 3.7 km/h 52 % 0 mm
13:33 -1.7 °C -10.1 °C 1024.3 hPa WNW 2.3 km/h 3.7 km/h 53 % 0 mm
13:34 -1.7 °C -10.2 °C 1024.3 hPa NW 2.7 km/h 5.6 km/h 52 % 0 mm
13:39 -1.5 °C -9.4 °C 1024.3 hPa NE 2.6 km/h 4.8 km/h 55 % 0 mm
13:44 -1.4 °C -9.5 °C 1024.3 hPa NNE 1.6 km/h 5.6 km/h 54 % 0 mm
13:45 -1.3 °C -9.4 °C 1024.3 hPa NE 1.9 km/h 5.6 km/h 54 % 0 mm
13:50 -1.4 °C -10 °C 1023.9 hPa NE 1.6 km/h 5.6 km/h 52 % 0 mm
13:51 -1.4 °C -10.1 °C 1023.9 hPa NE 0.6 km/h 3.7 km/h 52 % 0 mm
13:56 -1.3 °C -9.4 °C 1023.9 hPa Calm   4.8 km/h 54 % 0 mm
13:57 -1.2 °C -9.6 °C 1023.9 hPa NE 2.1 km/h 4.8 km/h 53 % 0 mm
13:58 -1.2 °C -9.6 °C 1023.9 hPa NE 3.2 km/h 5.6 km/h 53 % 0 mm
14:03 -1.2 °C -9.6 °C 1023.9 hPa NE 1.4 km/h 3.7 km/h 53 % 0 mm
14:04 -1.2 °C -9.8 °C 1023.9 hPa ENE 5.5 km/h 11.1 km/h 52 % 0 mm
14:09 -1.3 °C -9.7 °C 1023.6 hPa NNE 2.4 km/h 5.6 km/h 53 % 0 mm
14:11 -1.4 °C -10 °C 1023.6 hPa NNE 1.4 km/h 3.7 km/h 52 % 0 mm
14:17 -1.4 °C -9.6 °C 1023.2 hPa NNE 4 km/h 8 km/h 54 % 0 mm
14:22 -1.6 °C -9.7 °C 1023.2 hPa NE 2.7 km/h 5.6 km/h 54 % 0 mm
14:26 -1.7 °C -9.8 °C 1023.2 hPa NE 2.3 km/h 3.7 km/h 54 % 0 mm
14:30 -1.7 °C -9.6 °C 1022.9 hPa NE 2.9 km/h 5.6 km/h 55 % 0 mm
14:32 -1.8 °C -9.7 °C 1023.2 hPa NE 1.6 km/h 3.7 km/h 55 % 0 mm
14:37 -1.8 °C -9.7 °C 1022.9 hPa NE 2.7 km/h 5.6 km/h 55 % 0 mm
14:43 -2 °C -9.8 °C 1022.9 hPa NE 3.5 km/h 5.6 km/h 55 % 0 mm
14:47 -2.1 °C -9.7 °C 1022.9 hPa ENE 4.2 km/h 7.4 km/h 56 % 0 mm
14:53 -2.2 °C -9.8 °C 1022.6 hPa NE 1.6 km/h 5.6 km/h 56 % 0 mm
14:54 -2.3 °C -9.7 °C 1022.6 hPa NE 1.4 km/h 5.6 km/h 57 % 0 mm
14:58 -2.3 °C -9.4 °C 1022.6 hPa NE 3.7 km/h 5.6 km/h 58 % 0 mm
15:03 -2.3 °C -9.5 °C 1022.9 hPa NE 0.5 km/h 3.7 km/h 58 % 0 mm
15:08 -2.4 °C -9.3 °C 1022.6 hPa NE 1.9 km/h 5.6 km/h 59 % 0 mm
15:13 -2.4 °C -9.3 °C 1022.6 hPa NE 2.1 km/h 5.6 km/h 59 % 0 mm
15:18 -2.4 °C -9.2 °C 1022.6 hPa NE 1.1 km/h 3.7 km/h 60 % 0 mm
15:27 -2.4 °C -9.4 °C 1022.6 hPa NE 0.3 km/h 3.7 km/h 59 % 0 mm
15:32 -2.4 °C -9.2 °C 1022.6 hPa Calm   1.9 km/h 60 % 0 mm
15:33 -2.4 °C -9.2 °C 1022.6 hPa Calm     60 % 0 mm
15:38 -2.4 °C -9.2 °C 1022.2 hPa NE 1.8 km/h 3.7 km/h 60 % 0 mm
15:44 -2.4 °C -9.1 °C 1022.2 hPa NE 0.3 km/h 3.7 km/h 60 % 0 mm
15:45 -2.4 °C -9.1 °C 1021.9 hPa NE 0.8 km/h 3.7 km/h 60 % 0 mm
15:50 -2.4 °C -9.1 °C 1022.2 hPa NE 0.8 km/h 1.9 km/h 60 % 0 mm
15:52 -2.4 °C -9.1 °C 1022.2 hPa NE 2.3 km/h 5.6 km/h 60 % 0 mm
15:57 -2.4 °C -9.2 °C 1022.2 hPa Calm     60 % 0 mm
16:01 -2.4 °C -9.2 °C 1021.9 hPa Calm     60 % 0 mm
16:06 -2.4 °C -8.9 °C 1021.9 hPa Calm     61 % 0 mm
16:11 -2.4 °C -8.9 °C 1021.9 hPa Calm   1.9 km/h 61 % 0 mm
16:16 -2.4 °C -8.9 °C 1022.2 hPa Calm     61 % 0 mm
16:21 -2.5 °C -9 °C 1022.2 hPa Calm     61 % 0 mm
16:26 -2.6 °C -9.1 °C 1022.2 hPa NE 1.4 km/h 3.7 km/h 61 % 0 mm
16:27 -2.6 °C -9.1 °C 1022.2 hPa NE 0.8 km/h 3.7 km/h 61 % 0 mm
16:32 -2.6 °C -9.3 °C 1022.2 hPa Calm     60 % 0 mm
16:33 -2.7 °C -9.4 °C 1022.6 hPa Calm   1.9 km/h 60 % 0 mm
16:38 -2.7 °C -9.6 °C 1022.6 hPa Calm     59 % 0 mm
16:43 -2.7 °C -9.6 °C 1022.9 hPa Calm     59 % 0 mm
16:49 -2.8 °C -9.5 °C 1022.9 hPa NE 0.3 km/h 1.6 km/h 60 % 0 mm
16:51 -2.8 °C -9.5 °C 1023.2 hPa NE 1.4 km/h 3.7 km/h 60 % 0 mm
16:56 -2.9 °C -9.6 °C 1023.2 hPa Calm     60 % 0 mm
17:01 -3 °C -9.5 °C 1023.2 hPa Calm   1.9 km/h 61 % 0 mm
17:02 -3.1 °C -9.7 °C 1023.2 hPa Calm     60 % 0 mm
17:07 -3.1 °C -9.8 °C 1022.9 hPa Calm     60 % 0 mm
17:11 -3.2 °C -9.9 °C 1022.9 hPa Calm     60 % 0 mm
17:13 -3.3 °C -9.9 °C 1022.9 hPa Calm   1.9 km/h 60 % 0 mm
17:16 -3.3 °C -10 °C 1022.9 hPa Calm     60 % 0 mm
17:21 -3.4 °C -10.1 °C 1022.6 hPa Calm     60 % 0 mm
17:29 -3.6 °C -10 °C 1022.6 hPa Calm     61 % 0 mm
17:31 -3.6 °C -10 °C 1022.6 hPa Calm     61 % 0 mm
17:36 -3.7 °C -10.1 °C 1022.6 hPa NE 0.2 km/h 1.9 km/h 61 % 0 mm
17:41 -3.7 °C -10.2 °C 1022.6 hPa Calm     61 % 0 mm
17:43 -3.8 °C -10.2 °C 1022.6 hPa Calm     61 % 0 mm
17:48 -3.8 °C -10.2 °C 1022.2 hPa Calm     61 % 0 mm
17:51 -3.8 °C -10.3 °C 1022.2 hPa Calm     61 % 0 mm
17:54 -3.8 °C -10.1 °C 1022.2 hPa Calm     62 % 0 mm
17:57 -3.9 °C -10.1 °C 1022.2 hPa Calm     62 % 0 mm
18:02 -3.9 °C -10.1 °C 1022.2 hPa Calm     62 % 0 mm
18:05 -3.9 °C -10.2 °C 1022.2 hPa Calm     62 % 0 mm
18:10 -3.9 °C -9.8 °C 1022.2 hPa Calm     64 % 0 mm
18:11 -3.9 °C -9.8 °C 1022.2 hPa Calm     64 % 0 mm
18:16 -4 °C -9.6 °C 1022.2 hPa Calm     65 % 0 mm
18:20 -4.1 °C -9.7 °C 1021.9 hPa Calm     65 % 0 mm
18:21 -4.1 °C -9.7 °C 1021.9 hPa Calm     65 % 0 mm
18:26 -4.1 °C -9.7 °C 1021.9 hPa Calm   1.6 km/h 65 % 0 mm
18:31 -4.2 °C -9.6 °C 1022.2 hPa Calm     66 % 0 mm
18:36 -4.2 °C -9.6 °C 1022.6 hPa ENE 0.3 km/h 3.2 km/h 66 % 0 mm
18:41 -4.2 °C -9.4 °C 1022.2 hPa East 0.5 km/h 1.9 km/h 67 % 0 mm
18:42 -4.3 °C -9.5 °C 1022.2 hPa Calm     67 % 0 mm
18:54 -4.3 °C -9.3 °C 1021.6 hPa Calm     68 % 0 mm
18:59 -4.3 °C -9.3 °C 1021.6 hPa Calm   1.9 km/h 68 % 0 mm
19:02 -4.3 °C -9.2 °C 1021.9 hPa Calm     69 % 0 mm
19:06 -4.3 °C -9.2 °C 1021.6 hPa Calm     69 % 0 mm
19:11 -4.3 °C -9.2 °C 1021.2 hPa Calm   1.9 km/h 69 % 0 mm
19:14 -4.3 °C -9 °C 1021.2 hPa Calm     70 % 0 mm
19:16 -4.3 °C -9 °C 1021.2 hPa Calm     70 % 0 mm
19:21 -4.3 °C -8.9 °C 1021.2 hPa Calm     70 % 0 mm
19:23 -4.3 °C -8.9 °C 1021.2 hPa Calm     70 % 0 mm
19:27 -4.3 °C -8.9 °C 1020.9 hPa Calm     70 % 0 mm
19:30 -4.3 °C -8.8 °C 1020.9 hPa Calm     71 % 0 mm
19:34 -4.3 °C -8.9 °C 1020.9 hPa Calm     70 % 0 mm
19:39 -4.3 °C -9 °C 1020.9 hPa Calm     70 % 0 mm
19:41 -4.3 °C -9 °C 1020.9 hPa Calm     70 % 0 mm
19:45 -4.4 °C -9.1 °C 1020.9 hPa Calm     70 % 0 mm
19:47 -4.4 °C -9.1 °C 1020.5 hPa Calm     70 % 0 mm
19:50 -4.4 °C -8.8 °C 1020.9 hPa Calm     71 % 0 mm
19:55 -4.4 °C -8.9 °C 1020.5 hPa Calm     71 % 0 mm
19:57 -4.4 °C -8.9 °C 1020.9 hPa Calm     71 % 0 mm
20:02 -4.5 °C -8.9 °C 1020.9 hPa Calm     71 % 0 mm
20:04 -4.5 °C -8.9 °C 1020.9 hPa Calm     71 % 0 mm
20:09 -4.6 °C -9.2 °C 1020.9 hPa Calm     70 % 0 mm
20:12 -4.6 °C -9.3 °C 1020.9 hPa Calm     70 % 0 mm
20:17 -4.7 °C -9.1 °C 1020.5 hPa Calm     71 % 0 mm
20:22 -4.7 °C -9.2 °C 1020.5 hPa Calm     71 % 0 mm
20:27 -4.8 °C -9.2 °C 1020.9 hPa Calm     71 % 0 mm
20:32 -4.8 °C -9.1 °C 1020.5 hPa Calm     72 % 0 mm
20:34 -4.9 °C -9.2 °C 1020.5 hPa Calm     72 % 0 mm
20:39 -4.9 °C -9.1 °C 1020.5 hPa Calm     73 % 0 mm
20:44 -4.9 °C -9.1 °C 1020.5 hPa Calm     73 % 0 mm
20:45 -5 °C -9.1 °C 1020.5 hPa Calm     73 % 0 mm
20:50 -5.1 °C -9 °C 1020.5 hPa Calm     74 % 0 mm
20:51 -5.1 °C -9 °C 1020.5 hPa Calm     74 % 0 mm
20:52 -5.1 °C -9 °C 1020.5 hPa Calm     74 % 0 mm
21:00 -5.1 °C -8.8 °C 1020.5 hPa Calm     75 % 0 mm
21:05 -5.1 °C -8.8 °C 1020.5 hPa Calm     75 % 0 mm
21:07 -5.1 °C -8.8 °C 1020.5 hPa Calm     75 % 0 mm
21:08 -5.1 °C -8.8 °C 1020.5 hPa Calm     75 % 0 mm
21:13 -5.1 °C -8.8 °C 1020.5 hPa Calm     75 % 0 mm
21:18 -5.1 °C -8.8 °C 1020.2 hPa Calm     75 % 0 mm
21:21 -5.1 °C -8.8 °C 1020.2 hPa Calm     75 % 0 mm
21:26 -5.1 °C -8.8 °C 1020.2 hPa Calm     75 % 0 mm
21:31 -5.1 °C -8.8 °C 1020.2 hPa Calm     75 % 0 mm
21:36 -5.1 °C -8.8 °C 1019.9 hPa Calm     75 % 0 mm
21:39 -5.1 °C -8.8 °C 1019.9 hPa Calm     75 % 0 mm
21:41 -5.1 °C -8.8 °C 1019.9 hPa Calm     75 % 0 mm
21:46 -5.1 °C -8.8 °C 1019.5 hPa Calm     75 % 0 mm
21:49 -5.1 °C -8.8 °C 1019.5 hPa Calm     75 % 0 mm
21:53 -5.2 °C -8.9 °C 1019.5 hPa Calm     75 % 0 mm
21:58 -5.2 °C -8.7 °C 1019.5 hPa Calm     76 % 0 mm
22:03 -5.2 °C -8.7 °C 1019.2 hPa Calm     76 % 0 mm
22:04 -5.2 °C -8.8 °C 1019.2 hPa Calm     76 % 0 mm
22:09 -5.2 °C -8.8 °C 1019.2 hPa Calm     76 % 0 mm
22:12 -5.3 °C -8.8 °C 1018.8 hPa Calm     76 % 0 mm
22:17 -5.3 °C -8.8 °C 1018.8 hPa Calm     76 % 0 mm
22:22 -5.3 °C -8.9 °C 1018.8 hPa Calm     76 % 0 mm
22:24 -5.3 °C -8.9 °C 1018.5 hPa Calm     76 % 0 mm
22:29 -5.3 °C -8.9 °C 1018.2 hPa Calm     76 % 0 mm
22:34 -5.3 °C -8.7 °C 1018.2 hPa Calm     77 % 0 mm
22:38 -5.3 °C -8.7 °C 1018.2 hPa East 0.3 km/h 1.6 km/h 77 % 0 mm
22:43 -5.3 °C -8.6 °C 1017.8 hPa Calm     78 % 0 mm
22:48 -5.3 °C -8.6 °C 1017.5 hPa Calm     78 % 0 mm
22:51 -5.3 °C -8.5 °C 1017.5 hPa Calm     78 % 0 mm
22:56 -5.3 °C -8.3 °C 1017.5 hPa Calm     79 % 0 mm
22:58 -5.3 °C -8.3 °C 1017.5 hPa Calm     79 % 0 mm
23:01 -5.2 °C -8.3 °C 1017.5 hPa East 0.5 km/h 3.2 km/h 79 % 0 mm
23:06 -5.1 °C -8 °C 1017.2 hPa East 0.3 km/h 1.9 km/h 80 % 0 mm
23:09 -5.1 °C -7.8 °C 1017.2 hPa Calm     81 % 0 mm
23:10 -5 °C -7.8 °C 1017.2 hPa East 0.2 km/h 1.6 km/h 81 % 0 mm
23:14 -4.9 °C -7.7 °C 1008.7 hPa ENE 0.6 km/h 4.8 km/h 81 % 0 mm
23:15 -4.9 °C -7.7 °C 1009 hPa NE 2.7 km/h 5.6 km/h 81 % 0 mm
23:16 -4.9 °C -7.5 °C 1008.7 hPa NE 1.9 km/h 5.6 km/h 82 % 0 mm
23:17 -4.8 °C -7.2 °C 1017.2 hPa NNE 6.9 km/h 11.1 km/h 83 % 0 mm
23:20 -4.6 °C -6.9 °C 1016.8 hPa NNE 8.5 km/h 11.1 km/h 84 % 0 mm
23:22 -4.4 °C -6.6 °C 1017.2 hPa NE 6.1 km/h 11.1 km/h 85 % 0 mm
23:23 -4.3 °C -6.3 °C 1016.8 hPa NNE 4.3 km/h 9.3 km/h 86 % 0 mm
23:24 -4.3 °C -6.3 °C 1016.8 hPa NNE 7.1 km/h 8 km/h 86 % 0 mm
23:28 -4 °C -6 °C 1016.8 hPa NNE 6.4 km/h 12.9 km/h 86 % 0 mm
23:32 -3.7 °C -5.5 °C 1016.8 hPa NE 7.2 km/h 13 km/h 87 % 0 mm
23:37 -3.3 °C -5.1 °C 1016.5 hPa NNE 7.1 km/h 14.5 km/h 87 % 0 mm
23:38 -3.3 °C -5.1 °C 1008.4 hPa NNE 9 km/h 14.8 km/h 87 % 0 mm
23:41 -3.1 °C -4.9 °C 1016.5 hPa NNE 8.5 km/h 14.5 km/h 87 % 0 mm
23:42 -3 °C -4.8 °C 1008.4 hPa NNE 3.9 km/h 16.7 km/h 87 % 0 mm
23:44 -2.9 °C -4.9 °C 1016.5 hPa NNE 6.9 km/h 14.5 km/h 86 % 0 mm
23:47 -2.7 °C -4.7 °C 1016.5 hPa NNE 7.1 km/h 9.3 km/h 86 % 0 mm
23:52 -2.4 °C -4.6 °C 1016.5 hPa ENE 3.4 km/h 7.4 km/h 85 % 0 mm
23:53 -2.4 °C -4.7 °C 1016.5 hPa ENE 1.8 km/h 7.4 km/h 84 % 0 mm
23:55 -2.3 °C -4.6 °C 1016.5 hPa ENE 7.2 km/h 13 km/h 84 % 0 mm
23:56 -2.2 °C -4.6 °C 1016.5 hPa ENE 8 km/h 12.9 km/h 84 % 0 mm
Crab Meadow Weather
Compliments of Weather Underground - 3.5 mb

Script developed by  Jim McMurry - jmcmurry@mwt.net Adapted for the template by  Wim van der Kuil - Leuven-Template.eu

Astronomy: The Sun is around 4.5 billion years old.